Location: Borovka
(49.7741°N, 14.5280°E)
Time: 18:47:39
(UTC+00:00)

YUBILEINY - Visible Passes

Search period start: 07 March 2026 00:00
Search period end: 17 March 2026 00:00
Orbit: 1478 x 1508 km, 82.5° (Epoch: 7 March)

Date Brightness Start Highest point End Pass type
(mag) Time Alt. Az. Time Alt. Az. Time Alt. Az.
7 Mar ? 01:47:27 10° N 01:55:20 35° ENE 02:03:08 10° SE visible
7 Mar ? 03:44:09 10° NNW 03:52:46 65° W 04:01:19 10° S visible
7 Mar ? 18:51:31 10° W 18:57:22 19° NW 19:03:14 10° N visible
8 Mar ? 00:58:14 10° N 01:04:44 22° NE 01:11:09 10° ESE visible
8 Mar ? 02:54:21 10° N 03:03:10 79° E 03:11:52 10° SSE visible
8 Mar ? 04:52:09 10° NNW 04:59:02 27° WNW 05:05:54 10° SW visible
8 Mar ? 17:59:06 10° WSW 18:06:36 30° WNW 18:14:09 10° N visible
9 Mar ? 00:09:37 10° NNE 00:13:41 14° NE 00:17:43 10° ENE visible
9 Mar ? 02:04:45 10° N 02:13:12 49° ENE 02:21:34 10° SE visible
9 Mar ? 04:01:51 10° NNW 04:09:59 46° W 04:18:05 10° SSW visible
9 Mar ? 19:11:54 10° WNW 19:15:51 13° NW 19:19:49 10° NNW visible
10 Mar ? 01:15:20 10° N 01:22:53 31° ENE 01:30:20 10° ESE visible
10 Mar ? 03:11:53 10° NNW 03:20:37 75° W 03:29:15 10° S visible
10 Mar ? 18:18:21 10° W 18:24:47 22° NW 18:31:14 10° N visible
11 Mar ? 00:26:15 10° N 00:32:09 19° NE 00:37:59 10° E visible
11 Mar ? 02:22:09 10° N 02:30:53 69° ENE 02:39:33 10° SSE visible
11 Mar ? 04:19:41 10° NNW 04:27:02 32° W 04:34:21 10° SW visible
11 Mar ? 17:26:18 10° SW 17:34:09 35° WNW 17:42:01 10° N visible
11 Mar ? 23:38:06 10° NNE 23:40:57 12° NE 23:43:48 10° ENE visible
12 Mar ? 01:32:36 10° N 01:40:50 43° ENE 01:48:58 10° SE visible
12 Mar ? 03:29:30 10° NNW 03:37:53 54° W 03:46:12 10° SSW visible
12 Mar ? 18:38:18 10° W 18:43:10 16° NW 18:48:03 10° NNW visible
13 Mar ? 00:43:15 10° N 00:50:23 27° ENE 00:57:27 10° ESE visible
13 Mar ? 02:39:37 10° N 02:48:24 86° W 02:57:06 10° S visible
13 Mar ? 04:37:50 10° NNW 04:43:55 22° WNW 04:50:00 10° WSW visible
13 Mar ? 17:45:18 10° WSW 17:52:14 25° WNW 17:59:11 10° N visible
13 Mar ? 23:54:19 10° N 23:59:31 17° NE 00:04:40 10° E visible
14 Mar ? 01:49:56 10° N 01:58:35 60° ENE 02:07:09 10° SSE visible
14 Mar ? 03:47:16 10° NNW 03:55:00 37° W 04:02:41 10° SSW visible
14 Mar ? 18:59:40 10° NW 19:01:47 11° NW 19:03:54 10° NNW visible
15 Mar ? 01:00:27 10° N 01:08:25 37° ENE 01:16:18 10° SE visible
15 Mar ? 02:57:12 10° NNW 03:05:46 62° W 03:14:15 10° S visible
15 Mar ? 18:04:56 10° W 18:10:32 18° NW 18:16:09 10° N visible
16 Mar ? 00:11:12 10° N 00:17:51 23° NE 00:24:27 10° ESE visible
16 Mar ? 02:07:23 10° N 02:16:11 83° E 02:24:53 10° SSE visible
16 Mar ? 04:05:16 10° NNW 04:11:58 26° WNW 04:18:38 10° SW visible
16 Mar ? 23:22:30 10° NNE 23:26:50 14° NE 23:31:10 10° ENE visible
